Wind_Speed
9 8 8 10 11 10 10 11 12 14 14 14 13 13 14 14 13 13 12 12 11 10 8 7 6 5 6 8 8 7 6 6 9 8 9 12 12 13 14 15 14 14 13
12 8 7 7 9 10 10 12 13 15 15 15 14 13 13 13 13 12 12 11 12 10 8 8 6 4 4 6 7 7 7 8 9 10 11 11 12 13 13 15 15 15 15
11 10 10 10 11 11 12 13 15 15 16 15 14 14 13 13 13 12 12 11 10 9 9 7 6 3 2 4 5 6 8 8 8 11 13 13 13 13 13 13 17 15 13
11 11 10 10 11 13 14 15 15 15 16 16 16 15 15 15 15 14 12 11 10 9 8 7 6 4 1 1 3 5 6 8 10 12 12 12 13 13 14 14 14 12 12
15 12 12 12 14 15 16 15 16 17 18 18 17 16 15 16 15 16 14 13 12 10 9 7 5 3 1 1 2 3 4 8 12 8 9 11 12 12 14 15 13 12 10
16 14 14 14 14 16 17 17 16 16 15 14 13 12 15 15 14 17 17 15 15 13 10 8 6 3 1 2 3 4 2 8 9 5 8 12 11 13 15 13 12 11 12
16 14 15 15 15 17 16 17 16 16 14 14 13 12 13 13 12 13 15 14 16 15 14 13 9 7 3 2 4 5 4 7 9 5 8 12 12 13 15 15 12 11 11
17 15 14 14 15 16 16 16 13 12 11 11 12 11 9 11 12 11 15 14 14 14 15 14 13 11 7 4 2 5 7 8 8 8 7 10 16 15 16 15 14 12 12
16 17 16 15 15 16 15 14 9 9 8 8 7 7 7 8 8 9 12 15 15 15 16 15 12 14 14 7 4 4 8 9 11 9 6 9 13 15 16 15 11 11 12
17 18 17 17 17 16 13 10 8 7 7 8 7 7 7 7 7 9 10 13 14 14 15 14 14 12 15 13 10 7 7 8 12 14 12 10 14 13 15 17 13 14 12
19 18 16 15 15 13 12 8 5 5 6 7 8 8 7 7 7 8 9 9 14 10 11 11 11 10 12 11 9 9 6 9 10 12 16 16 20 17 12 14 15 15 13
20 19 19 17 16 14 10 7 4 4 5 7 9 9 8 8 8 8 8 8 8 10 10 11 11 11 12 14 13 11 10 11 14 15 15 14 12 17 17 15 17 15 13
20 18 17 17 16 13 10 8 5 4 5 6 8 9 9 9 10 10 10 10 11 12 12 12 12 12 13 14 14 16 16 14 16 18 17 15 14 14 16 15 20 18 14
21 19 18 16 16 14 11 9 7 5 6 6 7 8 9 10 10 11 12 13 14 15 15 16 16 15 14 14 15 15 16 17 17 16 19 19 17 18 19 19 19 19 18
24 22 20 18 16 15 13 10 9 8 7 6 5 7 8 9 10 10 11 12 14 15 16 16 17 18 18 18 18 19 19 19 19 20 19 18 20 21 22 23 21 20 21
28 26 23 20 18 16 13 11 10 8 8 6 4 5 7 7 8 9 9 11 12 14 14 15 17 18 18 19 20 20 20 20 21 21 22 22 20 21 23 22 24 23 22
31 28 26 22 19 16 13 12 10 8 7 5 3 3 4 5 7 7 7 8 10 12 12 15 15 17 18 20 21 21 23 24 24 24 25 24 25 24 24 25 26 27 25
31 31 27 23 21 17 15 13 10 7 6 5 3 1 2 2 4 5 5 6 8 11 11 15 16 18 19 20 22 20 24 25 26 28 28 27 28 28 28 26 27 28 27
33 32 28 24 22 18 16 13 10 8 6 5 2 2 1 0 1 3 3 4 6 7 8 9 12 13 16 17 19 20 17 24 25 24 29 28 25 28 28 28 27 28 32
34 31 28 25 22 19 17 15 11 9 7 5 3 2 1 1 1 2 4 5 5 6 8 7 11 10 14 14 17 17 15 17 12 27 23 30 35 36 36 32 29 28 32
34 32 29 27 25 23 22 17 12 11 9 7 5 5 3 3 1 4 5 6 6 7 8 8 10 11 15 15 16 21 13 2 23 11 26 32 38 37 34 33 32 30 29
36 34 31 29 28 26 22 18 10 12 9 7 8 7 6 5 4 6 7 8 6 9 8 11 11 11 14 15 12 12 5 15 7 26 21 25 32 35 36 32 28 32 30
40 38 34 32 30 27 22 17 13 10 8 9 9 9 7 6 5 7 8 5 8 8 10 12 12 13 17 14 16 9 4 4 23 19 24 27 30 35 31 29 29 31 35
40 41 37 33 32 29 24 20 18 15 12 11 10 9 7 6 6 6 4 7 8 10 11 11 15 15 14 18 21 17 14 18 7 13 30 27 30 28 29 28 30 32 36
39 44 39 35 35 31 27 22 20 17 13 10 10 9 8 7 8 7 7 9 9 10 12 15 12 19 19 20 19 20 20 19 19 7 12 21 31 28 30 31 33 31 33
36 41 39 37 37 33 29 25 22 19 15 14 13 12 10 10 9 8 10 9 12 11 14 13 20 19 20 21 21 24 24 17 15 10 8 16 20 37 35 33 31 30 29
Wind_Direction
121 115 114 104 94 85 80 81 79 83 78 78 80 72 70 70 71 70 69 65 59 57 54 53 59 84 75 76 77 80 95 118 129 126 132 130 132 129 130 130 128 120 119
125 121 116 109 103 97 101 89 93 96 89 87 80 76 71 68 64 64 66 69 63 57 57 50 48 63 90 93 85 88 108 122 131 131 130 131 138 139 136 131 129 121 118
125 130 114 111 105 104 104 96 95 93 89 84 82 81 76 71 68 64 65 62 58 52 52 47 47 67 111 86 80 96 119 133 135 136 136 136 142 144 141 139 129 122 119
137 124 118 115 108 106 106 103 98 90 85 82 79 77 74 69 64 58 58 56 53 51 50 49 50 63 96 115 92 93 128 138 147 142 142 147 145 148 147 144 135 130 132
119 117 125 118 115 115 108 103 98 94 89 82 80 74 71 66 62 52 52 51 46 42 43 47 49 58 109 186 169 118 126 143 143 150 168 165 155 158 158 158 150 148 151
116 118 119 117 119 116 115 106 100 93 83 73 68 69 62 59 56 49 47 47 43 40 39 36 39 36 17 273 220 192 147 151 157 167 173 181 177 168 165 166 175 167 167
121 125 123 125 125 123 113 104 98 90 83 77 75 78 65 53 50 46 39 40 39 41 37 33 30 21 6 329 277 247 210 191 183 164 184 194 202 187 180 183 186 186 181
122 129 128 131 129 120 111 101 96 96 88 78 74 86 71 56 62 49 43 45 35 30 25 28 24 20 6 351 298 257 245 234 229 227 217 216 211 203 191 198 200 194 186
129 131 132 132 127 116 104 97 99 83 73 68 63 60 63 52 51 47 47 39 34 36 38 28 21 26 24 3 334 283 264 253 253 259 250 230 217 216 209 197 202 200 184
146 137 135 132 125 118 118 121 102 78 64 55 50 53 46 47 45 43 43 38 34 31 32 34 42 23 17 26 14 341 276 287 267 269 278 257 229 230 240 212 208 195 194
157 153 154 149 139 142 138 129 120 83 55 46 46 42 36 40 38 33 36 28 32 27 26 25 30 26 14 12 23 5 332 293 296 283 282 283 257 257 260 243 212 209 194
147 151 156 158 161 158 152 154 134 94 57 43 49 48 44 45 47 36 36 28 20 16 11 9 7 8 13 19 14 354 343 326 323 306 294 299 277 263 265 251 223 216 212
164 165 169 168 169 178 175 164 148 118 85 59 54 49 43 49 50 55 53 44 34 28 19 11 7 6 1 2 4 10 10 341 319 321 302 294 284 272 262 270 230 216 210
175 181 188 193 196 194 186 168 155 140 110 86 62 49 43 48 52 55 53 47 39 33 33 29 23 16 8 1 355 349 354 359 353 324 321 314 296 275 274 280 246 231 214
181 187 195 197 193 189 182 168 156 139 124 105 73 48 40 49 53 58 58 47 38 34 31 25 19 11 6 1 358 354 347 342 343 344 337 313 304 300 285 276 256 242 221
190 192 193 194 193 188 182 171 157 143 132 127 95 48 37 44 47 51 53 44 37 29 26 19 12 11 7 1 357 353 349 345 337 335 333 328 317 305 301 292 257 250 236
195 192 194 192 193 189 185 177 165 150 145 137 114 51 27 35 37 44 46 39 32 23 18 12 13 6 5 359 355 355 348 343 339 334 330 327 327 318 310 294 287 254 242
196 194 191 193 193 191 186 181 175 162 159 147 136 86 41 29 30 33 39 36 27 14 7 2 4 4 3 5 358 355 342 341 337 335 332 330 324 318 314 307 292 268 245
200 194 191 194 195 189 185 184 181 176 173 169 171 176 100 40 17 14 23 20 9 2 357 353 355 358 356 355 353 350 343 333 338 339 335 336 335 326 319 310 304 277 260
199 198 197 195 194 189 185 183 182 183 185 191 200 208 218 271 339 351 1 0 344 338 342 342 346 343 350 338 337 335 330 326 359 330 333 331 330 326 324 315 307 299 268
196 197 197 193 191 188 185 182 189 193 195 204 218 212 235 263 317 331 334 331 316 322 326 328 335 334 339 338 330 335 324 82 324 352 325 319 324 328 323 320 311 303 291
194 197 198 198 194 195 202 201 197 193 206 212 207 220 238 251 270 314 311 306 300 312 313 325 316 318 329 331 333 340 339 327 22 328 322 319 319 317 316 320 312 306 295
193 192 194 196 196 198 203 200 191 187 200 211 213 210 233 242 264 290 290 295 313 319 323 329 322 321 317 320 334 330 338 311 322 325 314 316 310 306 310 315 305 303 301
197 201 200 198 197 201 206 205 201 202 200 211 211 224 223 238 263 277 282 308 308 317 320 325 327 325 321 319 322 316 290 283 298 311 313 307 303 300 301 307 306 297 299
194 202 203 202 200 201 206 207 203 202 212 210 218 222 231 238 251 247 287 301 306 313 314 317 318 323 318 313 309 313 303 297 293 250 293 307 305 298 296 295 297 286 292
192 198 201 201 200 201 201 204 206 204 210 213 221 227 232 245 241 252 292 296 303 295 306 302 313 313 311 305 301 305 295 287 292 277 284 297 299 298 294 294 289 279 283
Height
835 835 835 833 833 832 833 832 831 830 829 829 828 828 827 826 825 824 823 823 822 822 822 821 821 820 819 819 819 818 819 818 818 818 818 818 820 821 821 821 823 824 825
834 834 835 833 832 833 832 832 831 830 830 829 829 829 828 827 826 825 823 823 822 822 822 821 821 820 820 819 819 818 819 819 820 819 820 820 821 822 823 822 823 825 826
833 833 834 834 833 833 833 833 832 832 831 830 830 829 829 827 826 826 824 824 823 823 822 821 821 821 820 820 820 819 819 819 821 820 821 820 822 822 823 824 824 826 827
832 834 834 834 833 833 833 834 834 833 832 832 831 831 830 829 828 827 826 825 824 823 822 821 821 820 821 821 821 820 820 819 820 822 822 822 822 822 823 825 825 826 827
832 833 834 834 834 835 834 835 835 834 834 833 832 832 831 830 829 828 826 825 824 823 822 821 821 821 821 821 821 823 822 821 822 822 822 822 822 823 823 824 824 824 826
832 834 834 834 835 836 835 835 836 835 835 834 833 833 832 831 830 829 827 826 825 824 822 821 821 821 821 821 821 821 823 823 823 822 822 822 822 821 822 824 824 824 824
832 834 835 835 836 836 836 837 837 836 835 834 833 833 832 831 830 829 828 827 825 824 823 821 821 821 821 821 821 822 823 823 823 823 823 823 822 822 821 821 821 823 823
832 834 835 836 836 837 838 838 838 836 836 835 834 833 832 831 830 829 828 827 826 825 823 822 821 820 820 820 821 822 822 823 823 823 823 823 822 821 821 820 820 819 820
834 835 836 837 837 838 839 838 837 837 836 835 834 833 832 831 829 828 828 827 826 825 824 823 822 821 820 820 820 821 821 823 823 823 823 823 822 822 821 822 822 824 823
834 835 836 837 838 838 838 838 837 837 836 835 834 834 832 831 830 829 828 827 827 825 824 823 822 822 821 820 820 820 821 822 823 823 823 823 822 821 822 821 821 821 823
834 835 836 836 837 837 837 837 837 836 835 835 835 834 832 831 830 829 828 826 826 825 824 823 823 822 821 820 819 820 820 820 820 821 821 821 821 821 822 821 821 823 819
832 833 834 835 835 836 836 837 836 836 835 834 835 834 833 831 830 829 828 826 825 825 824 824 823 822 821 820 819 819 819 819 819 818 818 818 818 819 819 820 820 821 822
829 831 833 834 834 834 835 835 835 835 835 834 834 834 833 832 830 829 828 827 827 826 824 823 822 821 821 819 819 818 818 817 817 817 816 816 816 817 818 819 818 819 818
825 828 830 831 832 833 833 833 834 834 834 834 834 834 832 831 831 829 828 828 827 826 825 824 822 821 820 819 819 817 817 816 815 814 814 815 815 815 814 815 816 816 817
821 824 826 828 830 831 831 831 832 832 832 832 833 833 832 831 831 830 829 828 827 826 825 824 823 821 819 818 817 816 815 814 813 813 811 811 812 812 811 810 812 813 813
817 819 822 825 827 829 829 830 830 830 830 831 831 831 831 831 830 829 829 828 828 827 826 825 824 822 821 819 817 815 814 813 812 811 810 809 808 807 808 807 807 808 808
811 815 818 821 824 827 827 828 828 828 829 829 829 830 831 830 830 829 829 829 828 827 827 826 824 822 820 818 816 814 812 811 810 809 808 807 805 803 803 802 803 804 804
807 810 815 818 821 823 825 826 826 826 826 827 828 829 830 830 829 829 830 829 828 827 827 826 824 822 821 819 817 815 813 810 808 807 807 805 804 802 799 798 798 799 800
803 807 811 814 817 820 822 823 824 824 825 826 826 827 828 829 829 829 829 829 828 828 827 826 825 823 821 819 818 816 814 811 808 806 805 803 802 801 798 795 793 792 795
800 804 807 810 813 816 819 821 821 822 823 824 825 826 827 827 828 828 827 827 827 827 826 826 825 823 821 819 817 815 813 810 810 808 805 802 800 799 796 793 789 787 787
796 799 802 806 809 812 815 817 818 819 821 822 823 824 825 825 826 826 825 825 825 825 825 824 823 821 819 817 814 811 806 806 807 807 807 804 798 795 794 791 787 784 781
788 792 797 801 804 808 810 812 814 816 818 819 820 821 822 823 823 824 824 824 824 824 823 822 820 819 817 816 814 809 807 802 802 803 802 802 798 794 790 788 783 780 777
779 783 789 794 799 803 806 808 810 813 815 817 817 818 819 820 821 821 822 822 822 821 820 820 818 817 815 814 814 815 812 809 798 800 799 797 794 791 786 784 781 776 771
770 777 782 788 792 797 801 803 805 808 811 813 814 815 817 818 818 819 819 820 819 818 818 817 816 815 813 811 811 812 811 810 808 796 792 791 790 786 783 779 776 772 766
762 769 776 781 786 791 794 798 801 804 807 809 811 813 814 815 816 817 817 817 816 815 815 814 813 812 811 809 808 806 805 805 804 803 792 784 784 782 779 775 770 766 762
755 762 769 775 780 784 788 792 795 799 803 805 808 809 810 811 813 813 814 813 812 812 812 810 809 808 806 805 803 802 801 800 798 797 791 783 781 771 771 767 762 760 758